RH
34 34 30 23 22 21 24 22 34 51 37 24 27 30 33 29 17 15 95 100 84 100 100 100 100 100 100 100 73 54 56 26 50 100 87 83 74 55
34 31 31 26 21 19 17 20 21 21 34 23 21 26 33 39 22 15 52 100 100 100 100 100 100 100 100 99 80 76 57 36 57 100 82 76 59 60
26 25 24 23 20 17 15 14 15 17 18 28 20 23 29 38 36 19 24 100 100 100 100 100 100 100 100 96 89 76 56 49 81 96 88 66 60 49
23 21 22 22 20 18 16 15 14 15 16 23 26 20 25 32 38 26 15 43 100 100 100 100 100 100 100 100 98 77 63 57 99 85 88 58 56 51
22 21 18 17 18 16 15 14 13 13 13 16 22 21 22 30 33 36 21 15 98 100 68 100 100 100 100 100 100 74 53 91 100 77 75 61 54 60
15 15 13 12 12 11 13 12 11 11 11 12 14 20 20 25 28 34 26 16 35 100 100 100 100 100 100 100 99 90 53 89 100 84 83 82 49 66
9 9 9 9 8 8 8 10 10 10 10 9 11 14 16 18 23 31 30 17 13 56 100 100 100 100 100 100 100 94 48 84 100 91 78 90 49 68
8 8 7 7 7 7 7 7 7 7 8 6 8 10 13 15 18 22 32 18 12 18 100 100 100 100 100 98 100 98 58 90 100 100 93 97 62 61
6 6 6 6 5 6 5 6 6 6 7 7 6 7 9 12 14 17 22 21 11 11 70 100 100 100 100 100 100 96 59 100 100 100 98 100 56 71
6 6 5 5 4 4 4 4 5 6 7 6 6 6 8 8 10 14 17 15 12 10 18 100 100 99 100 100 100 100 66 94 96 78 100 100 67 72
5 5 5 5 4 3 3 4 4 4 4 6 6 6 7 7 7 10 15 15 10 8 12 100 100 100 100 100 100 99 91 80 82 76 100 100 93 67
4 4 4 4 4 3 3 3 4 3 2 4 5 5 5 5 6 7 12 12 10 9 16 100 100 100 100 100 100 94 94 100 65 91 90 88 89 80
4 4 4 3 3 3 3 3 3 2 2 2 3 4 5 4 6 6 10 11 9 9 9 96 100 100 100 100 100 98 100 99 67 100 66 100 93 91
3 3 3 3 3 3 3 3 3 3 3 3 3 3 4 4 5 6 9 9 7 8 10 55 100 100 100 100 100 86 100 98 85 98 55 85 70 88
2 2 2 2 2 2 2 2 2 3 3 3 3 3 3 3 4 5 7 8 7 8 10 56 100 100 100 100 100 100 100 100 97 93 57 88 86 85
3 2 2 2 2 2 2 2 2 2 2 3 3 3 2 3 4 5 6 7 7 8 11 28 100 100 100 100 100 100 95 99 95 73 57 100 85 71
3 2 2 2 2 2 2 2 2 2 2 2 3 3 2 2 3 4 6 6 7 8 11 56 100 100 100 100 100 100 88 97 82 69 85 100 77 85
3 2 2 2 2 2 2 2 2 2 2 2 2 2 2 2 3 4 5 6 7 7 10 62 100 100 100 100 100 100 96 85 95 71 92 100 100 78
3 3 2 2 3 2 2 2 2 2 2 2 2 2 2 2 3 4 5 7 6 7 9 34 100 100 100 100 100 100 100 66 96 97 89 85 100 100
3 3 3 3 2 2 2 2 2 2 2 2 2 2 2 2 3 3 5 6 7 8 8 18 100 100 100 100 100 100 100 75 99 100 100 100 100 100
4 3 3 3 3 2 2 2 2 2 2 2 2 2 2 3 3 4 4 5 7 8 8 10 87 100 100 100 100 100 100 84 100 100 88 100 100 100
4 4 3 3 3 2 2 2 2 2 2 2 2 2 2 3 3 4 5 5 6 9 8 10 24 100 100 100 100 100 100 100 94 79 100 100 100 100
4 4 4 3 3 2 2 2 2 2 2 2 2 2 3 3 4 4 5 6 7 9 9 10 12 91 100 100 100 100 100 100 100 84 82 100 100 100
Wind_Speed
90 89 89 84 81 78 76 72 75 75 69 56 57 61 65 67 75 83 112 107 100 99 93 90 79 77 77 64 57 61 51 50 47 43 38 32 25 20
98 95 96 94 88 84 79 75 71 76 76 66 56 64 64 67 71 79 106 112 103 105 99 100 94 85 80 78 69 61 55 53 50 47 38 32 24 22
106 103 101 101 96 92 81 80 76 76 72 85 62 69 69 68 74 79 98 123 113 108 102 105 97 91 77 77 75 70 61 58 51 48 40 35 29 19
111 105 106 107 102 99 94 89 83 80 75 84 86 68 76 78 74 83 93 118 124 115 106 105 104 100 92 80 76 72 65 65 57 55 45 38 33 24
118 115 109 106 105 102 101 95 94 90 89 85 90 80 83 90 79 86 94 107 132 123 115 109 107 103 96 81 78 70 65 69 60 56 48 41 37 28
114 114 112 111 108 107 104 104 101 99 94 95 92 89 90 94 92 93 96 105 124 134 121 120 115 108 97 86 84 74 71 68 63 56 50 44 39 33
103 105 107 107 105 107 107 105 106 106 104 102 101 101 105 106 103 101 101 103 116 136 122 125 123 113 103 96 87 81 76 73 66 59 54 50 45 38
104 103 98 96 95 98 99 103 105 104 105 106 107 116 109 111 111 113 108 109 108 126 138 130 128 119 110 101 94 90 80 76 70 62 58 55 49 42
90 92 90 90 89 89 90 90 91 96 101 104 110 115 117 127 123 115 118 114 106 118 142 134 134 121 114 107 97 92 86 80 72 67 62 59 52 47
80 80 81 82 82 83 81 81 84 86 90 99 105 110 116 123 125 124 119 121 114 113 136 144 138 125 119 111 104 98 89 84 77 70 68 64 57 52
73 74 76 77 79 77 73 74 77 82 86 89 95 105 114 116 125 127 125 126 119 111 131 152 139 128 122 117 113 105 98 93 80 78 73 69 65 58
65 66 66 69 73 71 67 71 74 79 81 85 88 94 101 110 120 123 129 129 121 111 125 153 141 129 129 119 116 107 104 99 90 86 72 75 71 61
61 62 63 64 66 66 65 68 73 75 76 82 86 92 96 101 109 120 126 126 122 110 118 152 144 137 133 126 120 111 107 103 95 87 79 81 71 64
55 57 59 60 62 64 63 66 70 71 71 75 82 89 94 94 102 117 120 127 119 107 112 149 148 146 142 133 122 116 111 105 99 92 84 83 74 71
50 50 51 52 54 58 60 64 67 69 71 74 79 84 90 91 95 112 120 123 117 112 111 154 156 152 146 133 127 123 117 108 103 96 87 88 77 68
45 46 46 45 46 50 53 59 63 67 68 72 76 80 84 85 89 104 117 121 118 111 115 148 164 151 142 137 132 128 123 115 105 92 91 90 78 71
40 39 40 41 42 45 48 53 59 63 63 67 73 76 80 83 87 99 114 116 118 113 115 152 160 154 149 140 133 131 125 117 104 96 94 86 82 74
34 34 34 36 39 43 46 48 53 59 61 63 69 74 76 78 86 97 109 115 117 114 118 154 166 162 155 148 136 134 124 117 110 100 99 91 83 80
30 31 30 33 35 40 43 46 50 54 55 58 63 71 74 77 83 93 105 114 115 115 116 152 172 163 157 153 139 132 124 117 112 106 101 94 90 85
26 25 26 28 32 36 39 43 46 48 53 58 62 68 72 73 79 91 105 113 115 116 117 142 172 164 158 149 145 137 129 124 117 110 103 101 97 92
23 22 24 26 29 33 36 38 42 46 50 56 61 65 66 70 79 90 103 111 115 117 117 137 171 171 163 152 141 138 133 126 123 114 109 106 101 93
20 20 22 25 28 30 32 35 39 43 48 54 58 62 63 72 79 90 98 109 114 118 117 136 164 177 164 155 145 138 131 121 119 116 113 107 100 90
18 20 22 24 26 28 30 34 37 42 46 51 54 60 63 74 78 90 99 107 116 119 120 135 153 171 163 156 148 138 134 123 120 116 116 114 105 98
Wind_Direction
278 278 279 281 279 278 276 271 273 274 275 230 220 229 236 236 228 223 211 216 218 214 218 220 224 227 224 222 222 224 230 236 244 233 235 231 241 243
276 277 276 278 278 276 272 266 267 270 271 259 223 224 228 232 229 222 215 213 211 212 217 221 226 227 223 224 227 224 227 235 236 228 227 231 237 243
278 276 276 276 276 273 267 263 263 262 263 268 254 214 222 224 228 223 215 212 214 209 213 219 222 223 219 225 219 224 224 233 228 226 224 235 233 238
276 274 273 273 270 269 266 260 257 252 253 262 263 234 219 219 223 224 219 211 211 207 208 214 219 222 224 219 221 224 226 228 223 226 227 231 231 227
274 273 269 268 266 263 259 255 251 247 239 244 257 247 216 214 218 220 220 214 211 210 215 210 215 218 220 215 215 224 224 224 217 222 226 221 229 224
270 270 267 265 261 258 255 250 248 244 238 233 239 244 217 216 217 217 218 217 213 211 207 210 212 216 216 211 217 219 219 217 215 218 219 219 224 220
272 269 265 262 260 258 250 247 246 242 241 235 231 231 224 218 216 216 219 216 216 212 208 208 209 212 218 219 218 213 220 216 213 218 220 216 224 221
269 269 265 262 259 254 252 246 243 241 240 235 231 225 226 223 215 215 217 219 216 212 207 207 209 210 215 216 212 215 215 213 211 213 216 215 224 224
267 264 263 260 257 254 250 247 244 241 237 235 230 229 227 225 222 220 219 220 217 213 206 203 209 208 213 214 211 211 212 213 206 209 214 214 221 222
264 263 262 260 257 252 249 246 242 238 237 234 230 228 226 222 224 220 219 223 219 212 208 203 208 207 211 212 210 207 213 209 209 214 214 215 216 221
262 259 258 256 254 251 247 243 240 239 234 231 229 229 226 223 222 222 217 221 223 213 209 205 205 205 208 212 213 206 209 209 210 212 214 217 216 221
260 257 253 250 250 248 244 241 239 236 232 229 227 227 227 223 218 219 217 221 224 216 209 201 202 205 206 210 212 207 210 210 213 213 215 217 220 218
260 258 255 252 251 248 242 238 236 235 231 228 226 224 224 221 217 214 215 219 222 216 208 202 201 201 204 208 210 208 207 207 214 209 214 215 214 209
262 257 253 250 247 245 241 238 237 235 230 227 225 222 221 218 213 212 212 215 219 213 206 200 200 201 205 207 207 208 204 208 210 209 213 213 211 211
264 259 253 248 244 240 237 235 234 232 228 226 224 221 219 216 213 212 210 213 215 209 205 199 199 200 204 206 206 206 206 206 206 206 211 211 209 210
262 258 254 248 242 236 232 230 230 229 225 223 222 221 220 215 211 209 209 212 213 208 204 203 200 201 203 204 206 207 206 205 204 204 212 209 208 210
260 254 251 246 239 234 229 226 226 227 223 220 219 218 219 214 210 206 208 210 212 208 203 201 197 199 202 204 205 208 207 204 205 204 207 207 208 213
260 254 246 241 234 229 227 224 224 224 220 216 213 216 216 212 208 205 205 208 208 204 203 200 197 199 202 202 205 207 207 204 204 205 207 208 208 212
257 252 246 239 231 227 225 221 221 221 218 214 211 212 213 211 207 204 204 206 206 203 201 200 198 199 202 202 204 206 208 205 204 204 207 213 211 209
256 249 242 235 228 225 223 219 217 217 213 209 209 209 209 208 205 203 204 204 205 205 203 202 197 200 200 203 205 206 207 205 205 204 206 209 211 211
253 244 235 227 223 221 222 219 215 213 210 208 206 207 205 203 202 201 203 202 203 202 202 202 198 200 200 202 201 206 208 206 203 205 209 208 211 214
247 235 227 225 221 217 216 215 213 209 207 206 206 203 200 197 198 199 201 201 202 201 202 202 200 202 201 201 203 204 206 206 206 206 207 206 209 213
240 233 225 221 218 213 210 209 209 206 204 204 203 198 197 195 196 199 198 199 200 200 201 201 203 201 201 201 202 204 207 205 205 205 207 206 207 208